Home > Weather > Larvik > Past weeks

Flag for Norway Past Weather in Larvik, Norway — Yesterday and Last 2 Weeks

Now
59 °F

Passing clouds.


Feels Like: 58 °F
Forecast: 54 / 62 °F
Wind: 7 mph from Southwest

Location: Torp

Current Time: Jun 28, 2016 at 9:52:50 AM

Latest Report: Jun 28, 2016 at 9:20 AM


Visibility: N/A

Pressure: 29.80 "Hg

Humidity: 77%

Dew Point: 52 °F

Location of LarvikLocation

Past Weather in Larvik — Graph

°F

Larvik Temperature Yesterday

Maximum temperature yesterday: 63 °F (at 1:20 PM)
Minimum temperature yesterday: 54 °F (at 3:50 AM)
Average temperature yesterday: 58 °F

High & Low Weather Summary for the Past Weeks

 TemperatureHumidityPressure
High73 °F (Jun 16, 3:50 PM)100% (Jun 15, 7:50 AM)30.18 "Hg (Jun 15, 7:50 AM)
Low48 °F (Jun 14, 5:50 AM)29% (Jun 13, 6:50 PM)29.56 "Hg (Jun 16, 6:20 PM)
Average60 °F86%29.81 "Hg
* Reported Jun 13 8:20 AM — Jun 28 8:20 AM, Larvik, Weather by CustomWeather, © 2016

Note: Actual official high and low records may vary slightly from our data, if they occured in-between our weather recording intervals... More about our weather records

Advertising

Larvik Weather History for the Previous 24 Hours

Scroll right to see more
 ConditionsComfort  
Time TempWeatherWind HumidityBarometerVisibility
8:20 AM
Tue, Jun 28
57 °FPassing clouds.7 mph88%29.80 "HgN/A
7:50 AM55 °FPassing clouds.7 mph94%29.80 "HgN/A
7:20 AM55 °FPassing clouds.6 mph88%29.80 "HgN/A
6:50 AM54 °FPassing clouds.6 mph94%29.80 "HgN/A
6:20 AM52 °FPassing clouds.7 mph100%29.77 "HgN/A
5:50 AM52 °FSunny.5 mph100%29.77 "Hg10 mi
5:20 AM52 °FCool.7 mph100%29.77 "HgN/A
4:50 AM52 °FCool.7 mph100%29.77 "HgN/A
4:20 AM52 °FCool.7 mph100%29.77 "HgN/A
3:50 AM52 °FCool.6 mph100%29.77 "HgN/A
3:20 AM54 °FCool.6 mph100%29.77 "HgN/A
2:50 AM54 °FPassing clouds.6 mph100%29.74 "HgN/A
2:20 AM55 °FPassing clouds.7 mph100%29.77 "HgN/A
1:50 AM54 °FPassing clouds.9 mph100%29.77 "HgN/A
1:20 AM54 °FPassing clouds.6 mph100%29.74 "Hg5 mi
12:50 AM55 °FCool.6 mph100%29.74 "Hg4 mi
12:20 AM55 °FPassing clouds.6 mph100%29.74 "HgN/A
11:50 PM
Mon, Jun 27
55 °FMostly cloudy.5 mph100%29.74 "HgN/A
11:20 PM57 °FPartly sunny.6 mph100%29.74 "HgN/A
10:50 PM57 °FPartly sunny.5 mph100%29.74 "Hg6 mi
10:20 PM57 °FLow clouds.1 mph100%29.74 "Hg6 mi
9:50 PM57 °FRain. Broken clouds.3 mph100%29.74 "Hg4 mi
9:20 PM55 °FRain. Scattered clouds.5 mph100%29.74 "Hg2 mi
8:50 PM55 °FDrizzle. Dense fog.7 mph100%29.77 "Hg1 mi
8:20 PM57 °FSprinkles. Broken clouds.7 mph100%29.77 "Hg6 mi
7:50 PM57 °FSprinkles. Partly sunny.12 mph100%29.77 "HgN/A
7:20 PM59 °FScattered showers. Broken clouds.14 mph94%29.77 "HgN/A
6:50 PM61 °FScattered showers. Partly sunny.13 mph88%29.77 "HgN/A
6:20 PM59 °FPartly sunny.17 mph94%29.77 "HgN/A
5:50 PM61 °FPartly sunny.20 mph83%29.77 "HgN/A
5:20 PM61 °FPartly sunny.21 mph77%29.77 "HgN/A
4:50 PM61 °FPartly sunny.20 mph83%29.77 "HgN/A
4:20 PM61 °FPartly sunny.17 mph88%29.77 "HgN/A
3:50 PM61 °FPartly sunny.21 mph83%29.77 "HgN/A
3:20 PM61 °FPartly sunny.20 mph83%29.77 "HgN/A
2:50 PM61 °FScattered showers. Partly sunny.20 mph83%29.77 "HgN/A
2:20 PM63 °FPartly sunny.18 mph77%29.77 "HgN/A
1:50 PM63 °FBroken clouds.18 mph77%29.77 "HgN/A
1:20 PM63 °FScattered showers. Partly sunny.18 mph83%29.77 "HgN/A
12:50 PM61 °FScattered showers. Partly sunny.18 mph88%29.77 "HgN/A
12:20 PM59 °FScattered showers. Partly sunny.15 mph100%29.77 "HgN/A
11:50 AM59 °FScattered showers. Broken clouds.15 mph100%29.77 "HgN/A
11:20 AM61 °FScattered showers. Partly sunny.17 mph88%29.77 "HgN/A
10:50 AM59 °FScattered showers. Partly sunny.15 mph94%29.77 "HgN/A
10:20 AM61 °FBroken clouds.13 mph94%29.77 "HgN/A
9:50 AM57 °FBroken clouds.13 mph100%29.77 "HgN/A
9:20 AM57 °FLight rain. Partly sunny.10 mph100%29.77 "HgN/A
Weather by CustomWeather, © 2016

See weather overviewHow to use our weather pages